Probability
6 3 6 13 13 13 13 10 10 10 10 10 6 6 3 0 0 0 10 39 55 55 52 45 48 45 42 42 35 39 39 32 39 45 32 42 29 29 32 32 29 35 32
3 3 13 13 16 16 13 13 13 13 3 3 3 3 3 6 0 3 6 26 48 55 55 48 42 45 48 45 35 39 39 39 42 39 48 42 35 29 32 32 35 39 39
6 10 10 16 16 19 13 10 10 6 3 3 3 6 3 6 6 6 6 6 13 39 48 55 55 52 48 42 35 35 39 42 42 45 42 35 35 35 29 32 39 42 39
13 10 13 19 16 13 10 13 10 6 3 3 6 3 3 3 3 6 10 6 13 16 26 45 55 55 55 55 48 42 42 42 45 35 32 32 29 32 32 29 35 39 35
16 16 16 16 16 16 13 10 10 10 3 6 6 6 6 6 3 6 10 10 13 10 10 23 35 48 52 52 52 45 42 45 42 32 26 26 29 29 32 32 32 32 32
16 10 10 16 16 13 13 6 10 6 6 13 13 6 6 6 6 6 6 3 6 6 6 10 16 35 42 48 48 45 48 42 42 35 32 29 26 26 29 26 23 26 29
6 3 10 13 16 16 13 10 6 13 10 6 10 6 6 6 6 6 3 3 6 10 13 10 3 0 16 35 42 45 45 48 39 42 35 32 29 29 26 23 23 23 26
6 13 6 16 19 19 16 13 10 6 6 3 6 6 6 3 3 3 6 6 10 10 13 13 6 0 3 13 16 29 39 39 32 39 35 29 29 29 26 23 23 19 23
6 10 16 19 19 16 10 13 10 6 6 3 3 6 6 3 3 0 3 10 6 3 6 3 3 6 10 10 6 19 35 39 39 29 29 29 29 26 26 23 26 23 26
10 10 16 16 16 16 16 10 16 13 6 3 3 6 3 0 3 0 0 3 0 0 0 0 6 10 10 10 6 10 19 26 32 39 35 35 35 32 26 29 26 26 35
13 16 16 16 16 13 16 16 16 13 6 10 10 6 3 3 0 0 0 0 3 3 0 3 0 3 10 10 3 3 13 16 19 26 35 35 35 32 29 29 19 23 29
16 13 16 16 16 16 16 13 19 16 13 10 6 6 3 3 3 6 3 3 3 3 3 3 3 0 10 10 13 13 13 10 16 19 23 29 35 35 29 29 26 29 26
13 10 16 13 16 16 16 10 13 19 16 6 6 6 3 6 3 3 3 3 3 3 3 3 3 3 6 6 6 23 16 6 6 6 6 16 16 19 23 23 23 29 29
19 19 16 19 16 16 19 10 13 10 13 13 13 6 6 6 3 3 3 3 0 0 0 0 3 3 3 3 3 6 13 6 3 3 6 6 6 13 16 19 19 23 23
13 13 13 16 16 19 19 10 13 10 13 13 13 13 6 6 13 6 3 3 3 3 0 0 3 3 3 3 3 3 10 0 0 0 0 6 6 3 3 6 10 13 13
13 13 19 13 16 19 19 16 16 13 13 10 13 13 10 6 6 6 6 3 3 3 3 0 6 6 0 0 3 3 3 0 0 0 0 0 0 0 0 0 0 0 0
13 16 13 10 6 19 16 16 16 16 13 16 10 10 10 6 3 3 6 6 3 0 0 0 3 3 3 3 0 0 0 0 0 0 0 0 0 0 0 0 0 0 0
10 16 10 6 3 6 10 16 10 6 6 10 6 0 3 3 0 3 3 6 6 0 0 0 3 0 6 3 3 3 3 3 3 3 0 0 0 0 0 0 0 0 0
10 13 6 6 3 6 6 10 13 10 6 10 10 3 3 3 3 3 3 3 3 3 0 0 3 3 6 6 6 3 3 3 3 6 3 3 0 0 0 0 0 0 0
13 13 6 6 10 10 10 10 13 10 10 10 10 6 6 3 3 3 3 3 0 3 3 3 3 3 3 0 6 3 3 3 3 3 6 3 3 3 0 0 0 0 0
16 16 13 10 10 10 10 6 6 10 10 10 10 6 6 6 3 3 6 6 6 6 6 6 6 0 3 0 3 3 3 3 3 3 3 6 3 3 3 0 0 0 0
19 13 13 13 13 6 6 6 6 6 10 10 10 6 6 6 6 3 3 3 3 6 6 6 3 0 3 3 3 3 3 3 3 3 3 3 3 6 6 0 0 0 0
23 16 13 10 10 10 10 6 0 3 10 10 6 6 6 10 10 10 3 3 3 3 3 0 0 0 0 6 6 6 6 6 6 6 3 3 3 3 3 0 0 0 0
16 16 13 13 13 13 10 3 3 3 3 3 3 6 10 10 10 10 6 6 6 6 3 0 0 0 3 6 6 6 6 6 3 3 6 6 6 3 3 0 0 0 0
13 13 16 13 10 10 3 3 0 0 3 6 6 6 6 6 6 3 3 3 3 6 3 3 3 3 3 3 3 3 3 3 6 6 3 6 6 3 3 3 0 0 0
10 13 13 13 13 13 10 3 0 3 6 6 10 6 6 6 6 3 3 6 6 6 6 3 3 3 3 0 0 0 3 3 6 6 6 6 6 3 3 3 0 0 0
Height
5890 5890 5890 5889 5889 5889 5888 5888 5888 5887 5887 5886 5886 5885 5885 5885 5884 5884 5883 5883 5883 5882 5882 5881 5881 5881 5880 5880 5879 5879 5878 5878 5878 5878 5877 5877 5877 5876 5876 5876 5876 5876 5876
5890 5890 5889 5889 5889 5888 5888 5888 5887 5887 5886 5886 5885 5885 5884 5884 5883 5883 5882 5882 5881 5881 5880 5879 5879 5879 5878 5878 5877 5877 5876 5876 5876 5876 5875 5875 5875 5874 5874 5874 5874 5873 5873
5889 5889 5889 5888 5888 5887 5887 5887 5886 5886 5886 5885 5884 5884 5883 5883 5882 5882 5881 5880 5880 5879 5879 5878 5878 5877 5876 5876 5875 5875 5875 5874 5874 5873 5873 5873 5873 5872 5872 5871 5871 5871 5871
5888 5888 5887 5887 5887 5886 5886 5885 5885 5885 5885 5884 5883 5883 5882 5881 5881 5880 5880 5879 5878 5878 5877 5877 5876 5876 5875 5874 5874 5873 5873 5872 5872 5871 5871 5871 5870 5870 5869 5869 5868 5869 5868
5887 5886 5886 5885 5885 5885 5884 5884 5884 5883 5883 5882 5882 5881 5880 5879 5879 5878 5878 5877 5877 5876 5876 5875 5875 5874 5873 5872 5872 5871 5871 5870 5869 5869 5868 5868 5867 5867 5866 5866 5865 5865 5865
5885 5885 5884 5884 5883 5883 5883 5882 5882 5882 5881 5881 5880 5879 5878 5877 5877 5876 5875 5875 5874 5874 5873 5873 5872 5872 5871 5870 5869 5868 5868 5867 5866 5866 5865 5864 5864 5863 5863 5863 5862 5862 5862
5883 5883 5882 5882 5882 5881 5881 5880 5880 5879 5879 5878 5878 5877 5876 5875 5874 5873 5873 5872 5872 5871 5871 5870 5869 5869 5868 5867 5867 5866 5865 5864 5863 5863 5862 5861 5861 5860 5860 5859 5859 5859 5859
5881 5881 5880 5879 5879 5879 5878 5878 5877 5877 5876 5875 5875 5874 5873 5873 5871 5871 5871 5870 5869 5869 5868 5867 5866 5865 5865 5864 5863 5862 5862 5861 5860 5860 5859 5858 5857 5857 5856 5856 5855 5855 5855
5879 5878 5877 5877 5876 5876 5875 5875 5874 5874 5873 5872 5871 5871 5871 5870 5869 5868 5867 5867 5866 5865 5864 5863 5862 5862 5861 5860 5860 5859 5858 5857 5857 5856 5855 5854 5853 5853 5852 5852 5851 5851 5851
5876 5875 5874 5874 5873 5872 5872 5872 5871 5870 5870 5869 5868 5868 5867 5867 5866 5865 5864 5863 5862 5862 5861 5860 5858 5857 5856 5856 5856 5855 5854 5853 5853 5852 5851 5850 5849 5849 5848 5847 5847 5847 5847
5873 5872 5871 5871 5870 5869 5868 5868 5867 5867 5866 5865 5864 5864 5863 5862 5862 5861 5861 5860 5859 5858 5857 5856 5855 5853 5852 5852 5851 5850 5850 5849 5848 5847 5846 5845 5845 5844 5843 5843 5842 5842 5842
5870 5869 5868 5867 5866 5865 5864 5864 5863 5863 5862 5861 5860 5859 5858 5858 5857 5857 5856 5855 5855 5854 5853 5852 5851 5849 5848 5847 5846 5846 5845 5844 5844 5843 5841 5840 5840 5839 5838 5838 5838 5837 5837
5866 5865 5864 5863 5862 5861 5860 5860 5859 5859 5858 5856 5855 5854 5854 5853 5853 5852 5852 5851 5850 5849 5848 5848 5846 5845 5844 5843 5842 5842 5841 5840 5839 5838 5836 5835 5835 5834 5834 5833 5833 5833 5832
5862 5861 5860 5859 5858 5857 5856 5855 5855 5854 5853 5852 5851 5850 5849 5849 5848 5847 5847 5846 5845 5844 5843 5843 5842 5841 5840 5839 5838 5837 5836 5835 5834 5832 5831 5830 5830 5829 5829 5828 5828 5827 5827
5858 5857 5855 5854 5854 5853 5852 5851 5850 5849 5848 5847 5846 5845 5845 5844 5843 5842 5841 5841 5840 5839 5838 5837 5836 5836 5835 5834 5833 5832 5831 5830 5828 5827 5826 5825 5824 5824 5823 5823 5822 5822 5822
5853 5852 5851 5850 5849 5848 5847 5846 5845 5844 5843 5842 5841 5840 5839 5838 5838 5837 5836 5835 5834 5834 5833 5832 5831 5830 5829 5828 5827 5826 5825 5824 5823 5822 5820 5819 5819 5818 5817 5817 5816 5816 5816
5849 5847 5846 5845 5844 5842 5841 5840 5839 5838 5837 5836 5835 5834 5833 5832 5832 5831 5830 5829 5828 5828 5827 5827 5826 5825 5824 5823 5822 5821 5820 5819 5818 5816 5815 5814 5813 5812 5811 5811 5810 5810 5810
5844 5842 5840 5839 5838 5837 5836 5835 5834 5833 5831 5830 5829 5828 5827 5826 5826 5825 5824 5823 5822 5821 5821 5821 5820 5819 5818 5817 5817 5816 5815 5814 5812 5811 5810 5809 5807 5806 5806 5805 5804 5804 5804
5838 5836 5834 5833 5832 5831 5830 5829 5828 5827 5825 5824 5823 5821 5820 5819 5819 5818 5817 5817 5816 5815 5814 5814 5814 5813 5812 5811 5811 5810 5809 5808 5807 5806 5804 5803 5802 5801 5800 5799 5798 5798 5798
5832 5830 5829 5828 5826 5824 5823 5822 5821 5820 5819 5817 5816 5815 5814 5813 5812 5811 5811 5810 5810 5809 5808 5808 5808 5807 5807 5806 5805 5804 5804 5803 5801 5800 5799 5797 5796 5795 5794 5794 5793 5793 5793
5826 5824 5823 5821 5820 5818 5817 5815 5814 5813 5812 5811 5809 5808 5807 5806 5805 5804 5804 5803 5802 5802 5802 5802 5801 5801 5801 5800 5799 5798 5797 5796 5795 5794 5792 5792 5790 5789 5789 5788 5788 5788 5787
5819 5818 5816 5814 5813 5811 5810 5809 5807 5806 5805 5804 5802 5801 5800 5798 5797 5797 5796 5795 5795 5795 5794 5795 5795 5794 5794 5794 5792 5792 5791 5790 5789 5788 5786 5785 5784 5783 5783 5782 5782 5782 5782
5813 5811 5809 5808 5806 5805 5803 5802 5801 5799 5797 5796 5794 5793 5792 5791 5790 5790 5790 5789 5789 5788 5788 5788 5787 5787 5786 5786 5786 5785 5784 5783 5782 5781 5780 5779 5778 5777 5777 5776 5776 5776 5775
5806 5804 5802 5801 5799 5798 5797 5795 5794 5792 5790 5789 5787 5786 5784 5783 5782 5782 5782 5782 5782 5781 5781 5780 5780 5780 5779 5779 5778 5778 5776 5776 5775 5774 5773 5773 5772 5771 5770 5770 5769 5769 5769
5799 5797 5795 5794 5792 5791 5789 5788 5786 5785 5783 5781 5780 5778 5777 5776 5775 5774 5774 5775 5774 5774 5773 5773 5772 5772 5772 5771 5771 5770 5769 5768 5768 5767 5766 5766 5765 5764 5764 5763 5762 5762 5761
5791 5789 5788 5786 5785 5784 5782 5781 5779 5778 5776 5775 5773 5771 5770 5769 5768 5767 5767 5767 5767 5767 5766 5765 5765 5765 5764 5764 5763 5762 5762 5761 5760 5760 5759 5758 5758 5757 5757 5756 5755 5754 5754
Wind_Speed
1 1 1 1 1 1 2 1 1 2 3 3 3 3 3 4 3 3 3 4 5 5 5 6 6 6 6 6 6 7 7 7 8 8 9 8 7 8 8 8 8 8 8
1 1 1 1 1 1 2 2 1 2 2 3 3 3 4 4 4 4 4 5 6 5 5 5 7 7 7 7 7 7 8 8 9 9 9 8 8 8 9 9 9 9 9
2 1 2 2 2 3 3 2 2 2 3 4 4 4 4 5 5 5 5 5 5 4 4 5 5 6 7 7 7 7 7 8 8 8 9 9 9 9 9 10 10 10 10
2 2 2 3 3 3 3 2 3 3 4 4 5 5 6 6 6 5 6 6 6 6 6 6 6 7 7 7 7 8 8 8 8 8 9 10 10 10 11 11 11 12 12
3 3 3 3 3 4 3 4 4 5 6 6 6 7 7 7 7 7 7 7 7 7 7 7 8 8 7 8 8 9 9 10 9 9 9 10 10 11 11 11 10 12 13
3 3 4 4 4 5 5 5 6 7 7 7 8 8 8 8 8 8 9 9 9 8 8 8 9 10 9 9 10 10 10 10 10 10 11 11 11 11 12 12 12 12 12
4 4 5 5 6 6 6 7 8 8 8 7 8 8 8 8 9 9 9 9 9 9 10 10 11 11 11 11 11 10 10 10 11 11 12 12 12 12 13 13 13 14 14
6 6 7 7 7 7 8 7 8 8 9 9 9 9 9 9 9 10 10 9 9 9 10 11 12 12 12 12 11 11 11 12 12 13 13 13 13 14 14 14 15 14 14
7 8 8 8 8 8 7 7 8 9 10 10 10 9 9 10 10 11 11 11 10 10 11 12 13 13 13 13 13 13 13 13 13 13 14 14 15 15 16 15 15 15 15
8 8 9 10 10 10 9 10 10 10 11 11 10 11 11 11 11 11 12 12 11 11 12 12 13 13 13 14 14 14 14 14 14 15 15 15 15 16 16 16 16 16 17
10 10 10 11 11 11 11 11 11 11 11 12 12 12 12 12 12 12 12 12 13 13 13 13 13 13 14 14 15 14 15 15 15 16 16 17 17 17 18 18 17 17 18
11 12 12 12 12 12 12 12 13 13 13 13 13 13 13 13 13 13 13 14 14 14 14 14 14 14 14 15 15 15 15 15 16 17 18 17 17 18 18 18 18 18 18
13 14 14 13 14 13 13 13 14 14 14 15 15 14 13 14 14 14 14 15 15 15 15 15 15 15 14 15 15 15 15 16 16 17 18 18 18 18 18 18 18 19 18
14 14 14 14 14 14 14 14 15 15 16 16 16 16 15 15 15 16 16 16 16 15 15 16 16 16 15 15 16 16 17 17 18 19 19 17 17 18 18 18 19 19 19
15 15 14 15 14 14 14 15 15 16 17 17 17 17 17 17 17 17 18 17 17 16 16 17 17 17 16 15 16 16 17 17 17 18 18 18 18 19 20 20 20 20 20
15 15 15 16 16 15 15 16 16 16 17 18 19 19 19 19 19 19 19 19 18 18 17 18 18 18 17 16 16 16 17 17 17 18 19 19 19 20 20 21 22 22 21
15 15 16 16 16 17 17 17 17 18 18 19 19 20 20 20 19 20 20 19 19 19 18 18 18 18 17 17 16 16 17 17 18 18 18 19 20 20 20 21 22 22 22
17 16 16 17 17 17 17 17 18 19 19 19 20 21 21 21 20 21 21 21 20 20 19 18 18 18 17 17 17 17 17 18 18 18 18 18 18 18 19 20 21 21 22
18 18 18 18 18 18 18 18 18 19 19 20 20 21 21 22 22 21 21 21 20 20 20 19 18 18 18 18 18 18 18 18 18 18 18 18 18 18 18 18 19 20 21
18 18 19 19 18 18 19 19 19 19 19 20 20 21 21 21 21 21 21 21 21 20 20 19 19 19 19 19 19 19 19 19 19 20 20 19 18 18 18 17 18 19 20
19 20 19 19 19 19 19 20 20 20 19 20 20 20 20 21 21 21 21 21 21 21 21 21 21 20 20 20 20 20 20 20 20 20 20 19 19 19 18 18 18 19 20
20 20 19 19 19 20 20 20 20 20 20 20 21 21 22 22 22 21 22 22 22 22 22 21 22 22 22 21 21 21 21 21 21 20 20 20 20 20 20 20 19 20 20
21 21 21 21 21 21 21 20 21 21 21 21 21 22 22 22 23 23 22 23 22 22 22 22 22 22 21 21 22 22 22 22 22 21 21 20 20 20 20 21 21 21 21
23 23 22 22 22 21 21 21 22 22 22 22 22 22 22 22 22 23 23 23 23 23 23 23 22 22 22 21 21 21 22 22 22 21 21 21 21 21 21 21 21 22 22
24 24 23 23 22 22 22 22 23 23 22 23 22 23 22 22 22 22 23 22 22 23 23 24 24 23 23 22 22 22 22 21 21 21 22 21 21 21 21 22 22 23 23
24 24 23 23 23 23 23 23 22 22 22 22 22 22 22 22 22 22 22 22 23 23 24 23 23 23 23 23 23 23 24 23 23 23 23 23 23 23 23 23 23 24 24
Wind_Direction
9 3 15 340 9 18 8 322 315 328 317 311 307 302 302 303 298 300 286 273 271 272 268 265 265 267 264 268 273 271 274 268 268 266 264 261 262 262 261 258 255 252 254
11 13 346 320 319 325 324 323 317 318 300 300 300 298 296 295 295 287 278 274 279 275 273 267 264 269 272 272 274 276 276 273 271 270 267 263 266 269 266 262 259 254 253
332 326 321 312 304 308 308 302 298 301 298 296 296 291 293 293 290 283 280 278 285 277 282 288 282 279 283 286 285 284 282 279 278 275 273 269 267 267 267 263 259 259 257
301 292 286 289 288 289 296 294 292 292 294 293 291 291 289 288 287 283 281 278 281 277 270 277 287 287 287 289 289 286 285 283 278 279 277 274 270 269 267 264 260 258 256
305 287 285 287 284 282 280 281 282 284 286 286 284 287 285 285 282 282 283 280 280 278 275 276 281 282 283 288 289 286 285 279 273 276 276 274 272 269 266 264 263 259 256
310 297 295 293 288 280 277 275 275 280 283 282 282 282 283 278 277 279 281 281 280 278 277 280 279 279 278 283 288 286 283 275 271 271 273 273 271 267 263 263 262 261 258
295 289 290 289 288 287 284 281 277 278 279 282 284 283 284 278 274 276 279 280 280 278 277 280 282 285 283 283 284 281 281 278 273 270 273 272 269 266 264 263 263 265 262
295 291 290 289 285 282 282 283 281 278 275 279 280 281 282 280 275 276 277 278 278 276 278 280 281 284 284 282 278 277 276 279 277 274 275 274 269 264 264 264 263 264 263
298 294 289 290 288 286 285 282 284 284 282 282 281 279 278 281 278 280 281 281 282 281 282 282 281 282 283 280 279 277 275 276 276 274 275 275 271 267 265 263 264 262 261
296 297 294 291 289 291 289 286 284 285 283 283 282 279 276 280 278 281 283 284 285 287 289 289 286 285 284 280 278 279 276 275 276 276 275 273 270 269 267 264 265 263 261
301 299 294 293 291 292 293 290 286 287 284 282 283 281 277 278 281 280 280 281 285 286 286 287 287 286 285 279 278 277 277 275 275 276 277 274 268 268 268 265 265 265 264
296 297 294 289 287 288 289 290 286 286 288 285 283 279 277 276 281 282 279 279 282 284 283 283 284 285 283 278 277 280 279 277 276 276 277 277 272 270 268 266 266 267 265
295 293 291 288 285 284 285 287 287 286 291 288 283 279 279 278 278 279 282 281 282 282 282 283 282 283 283 281 280 279 278 277 276 278 279 278 274 270 270 268 267 267 265
295 294 292 290 285 281 282 283 284 285 288 288 284 280 281 280 279 279 282 284 283 280 280 282 282 282 281 281 279 278 277 276 277 278 279 278 272 270 269 269 268 267 264
294 292 290 287 287 283 282 283 283 284 285 285 284 282 280 279 280 280 281 282 282 278 278 279 280 281 279 280 279 279 279 279 280 280 278 276 273 271 269 269 267 266 265
293 290 287 286 287 285 284 285 285 284 285 284 284 283 281 280 280 280 281 281 280 278 276 275 277 279 279 280 281 278 279 281 281 280 279 279 276 272 270 268 266 266 264
290 288 287 286 286 284 282 282 283 283 283 283 283 283 282 281 280 280 279 279 278 278 276 273 275 277 278 279 280 279 280 282 281 281 281 278 276 274 270 268 265 264 262
292 289 287 285 285 284 284 281 281 282 283 282 283 284 284 283 282 281 280 279 278 276 275 274 275 274 276 277 277 278 280 282 284 283 284 282 282 280 276 270 265 264 262
291 292 290 287 286 284 284 283 283 284 284 283 282 283 284 283 281 281 281 278 277 277 274 273 273 273 274 276 276 278 280 282 284 284 283 281 281 282 280 276 272 269 263
291 291 290 288 289 287 284 282 282 282 282 283 283 284 284 284 281 280 280 278 277 276 273 271 271 271 273 275 277 279 279 280 284 285 283 282 281 279 278 277 274 269 265
291 290 289 288 288 289 288 285 282 281 281 282 282 282 282 283 281 279 278 278 278 274 271 270 270 271 274 277 279 279 279 279 282 285 282 278 278 278 277 276 275 270 266
288 288 289 289 288 287 287 287 286 284 283 284 283 282 283 283 281 279 278 278 276 274 272 269 270 272 274 276 277 277 280 282 281 282 279 277 276 276 274 273 273 271 269
287 288 289 289 288 288 287 286 285 286 286 285 284 284 284 283 281 281 280 280 278 276 273 272 275 274 275 275 275 276 278 281 280 279 279 278 279 279 275 271 271 272 271
287 287 287 288 288 288 287 285 285 285 285 286 285 285 286 285 282 280 281 280 278 277 276 276 275 275 275 272 270 274 277 278 277 278 279 278 276 278 277 275 273 272 272
288 285 285 286 286 285 285 286 286 285 285 286 287 287 287 287 286 283 281 280 278 276 275 275 275 274 273 272 271 273 275 276 276 276 276 275 273 273 273 275 275 273 271
289 286 285 284 284 284 284 284 284 284 285 286 288 289 286 284 284 283 281 280 278 276 274 275 275 273 272 272 273 273 274 276 276 275 274 274 273 272 272 273 273 272 270